DO3HUM-5 Weather Reports


time (UTC)temp
C
wind
direction
speed
KPH
gust
KPH
rain 1hr
cm
rain 24hr
cm
rain mn
cm
humidity
%
barometer
mb
20260507112612 8 311 0.0 6.4 0.30 1.60 1.32 91 1021.5
20260507111609 8 7 0.0 3.2 0.28 1.52 1.27 91 1021.4
20260507110559 8 315 0.0 3.2 0.28 1.50 1.22 91 1021.3
20260507105556 8 338 0.0 3.2 0.20 1.42 1.14 91 1021.3
20260507104549 8 303 1.6 6.4 0.28 1.42 1.14 91 1021.1
20260507103545 8 0 1.6 6.4 0.20 1.35 1.09 91 1020.9
20260507102543 7 347 1.6 6.4 0.20 1.30 1.02 90 1020.9
20260507101535 8 126 1.6 6.4 0.18 1.27 0.99 91 1020.8
20260507100531 8 113 0.0 3.2 0.18 1.22 0.97 91 1020.7
20260507095524 8 305 0.0 3.2 0.18 1.19 0.94 91 1020.6
20260507094520 8 51 1.6 6.4 0.15 1.14 0.86 91 1020.4
20260507093614 7 354 1.6 3.2 0.18 1.14 0.86 91 1020.4
20260507092609 7 344 0.0 3.2 0.15 1.09 0.81 91 1020.2
20260507091608 7 93 1.6 6.4 0.15 1.09 0.81 91 1020.1
20260507090558 7 87 1.6 6.4 0.15 1.04 0.79 91 1019.9
20260507085555 7 92 1.6 6.4 0.13 1.02 0.76 91 1019.9
20260507084547 7 103 3.2 9.7 0.13 0.99 0.71 91 1019.7
20260507083545 7 29 1.6 11.3 0.15 0.97 0.69 91 1019.5
20260507082535 7 76 1.6 3.2 0.18 0.94 0.66 92 1019.4
20260507081534 7 0.0 3.2 0.20 0.94 0.66 92 1019.3
20260507080526 7 325 1.6 6.4 0.23 0.89 0.64 92 1019.2
20260507075522 7 351 1.6 6.4 0.30 0.89 0.64 92 1019.1
20260507074519 7 89 0.0 6.4 0.36 0.86 0.61 92 1019.1
20260507073611 7 45 0.0 3.2 0.38 0.81 0.53 93 1019.0
20260507072610 7 29 1.6 6.4 0.36 0.76 0.48 92 1018.9
20260507071600 7 336 0.0 3.2 0.38 0.71 0.46 92 1018.9
20260507070558 7 0.0 3.2 0.36 0.66 0.38 92 1018.7
20260507065548 7 0 0.0 3.2 0.33 0.61 0.33 92 1018.6
20260507064547 7 20 0.0 3.2 0.23 0.51 0.23 92 1018.5
20260507063544 7 322 1.6 6.4 0.15 0.43 0.15 92 1018.3
20260507062535 7 349 0.0 3.2 0.13 0.38 0.13 92 1018.0
20260507061532 7 355 3.2 6.4 0.05 0.33 0.05 91 1017.9
20260507060524 7 346 1.6 3.2 0.03 0.30 0.03 91 1017.7
20260507055522 7 30 1.6 6.4 0.00 0.28 0.00 91 1017.6
20260507054612 8 135 3.2 12.9 0.00 0.28 0.00 91 1017.3
20260507053610 8 117 3.2 6.4 0.00 0.28 0.00 90 1017.2
20260507052607 8 307 3.2 11.3 0.00 0.28 0.00 90 1017.0
20260507051558 8 87 1.6 6.4 0.00 0.28 0.00 89 1016.9
20260507050556 9 89 1.6 6.4 0.00 0.28 0.00 90 1016.7
20260507045549 9 78 3.2 9.7 0.00 0.28 0.00 90 1016.6
20260507044547 9 90 0.0 3.2 0.00 0.28 0.00 90 1016.4
20260507043538 9 90 1.6 6.4 0.00 0.28 0.00 90 1016.4
20260507042533 9 55 0.0 6.4 0.00 0.28 0.00 90 1016.2
20260507041532 9 97 1.6 6.4 0.00 0.28 0.00 90 1016.2
20260507040522 9 100 1.6 6.4 0.00 0.28 0.00 90 1016.0
20260507035520 9 142 1.6 3.2 0.00 0.28 0.00 90 1016.1
20260507034613 9 81 1.6 11.3 0.00 0.28 0.00 90 1015.9
20260507033610 9 116 3.2 6.4 0.00 0.28 0.00 90 1015.9
20260507032600 9 113 0.0 6.4 0.00 0.28 0.00 90 1015.9
20260507031557 10 58 1.6 6.4 0.00 0.28 0.00 90 1015.7
20260507030556 10 90 3.2 9.7 0.00 0.28 0.00 90 1015.8
20260507025546 10 71 3.2 6.4 0.00 0.28 0.00 89 1015.7
20260507024543 10 97 3.2 6.4 0.00 0.28 0.00 89 1015.7
20260507023536 10 106 4.8 9.7 0.00 0.28 0.00 90 1015.7
20260507022532 10 68 1.6 9.7 0.00 0.28 0.00 91 1015.7
20260507021524 10 108 1.6 3.2 0.00 0.28 0.00 91 1015.8
20260507020523 10 90 0.0 3.2 0.00 0.28 0.00 91 1015.8
20260507015518 10 97 1.6 3.2 0.00 0.28 0.00 90 1015.7
20260507014610 10 102 1.6 3.2 0.00 0.28 0.00 90 1015.7
20260507013608 10 43 1.6 3.2 0.00 0.28 0.00 90 1015.5
20260507012559 10 61 1.6 6.4 0.00 0.28 0.00 90 1015.6
20260507011556 10 68 1.6 6.4 0.00 0.28 0.00 90 1015.5
20260507010550 10 70 1.6 6.4 0.00 0.28 0.00 90 1015.4
20260507005545 10 85 3.2 11.3 0.00 0.28 0.00 88 1015.4
20260507004542 10 80 1.6 6.4 0.00 0.28 0.00 88 1015.5
20260507003535 10 79 1.6 3.2 0.00 0.28 0.00 89 1015.3
20260507002531 11 83 1.6 6.4 0.00 0.28 0.00 89 1015.2
20260507001524 11 65 1.6 3.2 0.00 0.28 0.00 90 1015.2
20260507000520 11 68 1.6 3.2 0.00 0.28 0.00 89 1015.2
20260506235612 11 79 0.0 3.2 0.00 0.28 0.00 89 1015.1
20260506234609 11 83 1.6 6.4 0.00 0.28 0.00 89 1015.1
20260506233606 11 72 1.6 6.4 0.00 0.28 0.00 89 1015.1
20260506232558 11 80 1.6 6.4 0.00 0.28 0.00 89 1014.9
20260506231555 11 98 3.2 9.7 0.00 0.28 0.00 88 1015.0
20260506230549 11 68 0.0 3.2 0.00 0.28 0.00 89 1015.1
20260506225546 11 86 1.6 3.2 0.00 0.28 0.00 90 1015.1
20260506224537 11 75 1.6 3.2 0.00 0.28 0.00 91 1014.9
20260506223533 11 77 1.6 3.2 0.00 0.28 0.00 92 1014.7
20260506222526 10 0.0 0.0 0.00 0.28 0.00 92 1014.7
20260506221522 10 0.0 0.0 0.00 0.28 0.00 92 1014.6
20260506220519 10 0.0 0.0 0.00 0.28 0.00 91 1014.4
20260506215612 11 122 0.0 3.2 0.00 0.28 0.28 91 1014.4
20260506214609 11 0.0 3.2 0.00 0.28 0.28 91 1014.5
20260506213559 11 70 1.6 3.2 0.00 0.28 0.28 91 1014.4
20260506212557 11 90 1.6 6.4 0.00 0.28 0.28 91 1014.2
20260506211548 11 0.0 0.0 0.00 0.28 0.28 91 1014.2
20260506210545 11 73 1.6 6.4 0.00 0.28 0.28 90 1014.1
20260506205543 11 88 1.6 6.4 0.00 0.28 0.28 90 1014.1
20260506204535 11 90 0.0 6.4 0.00 0.28 0.28 90 1014.2
20260506203532 11 113 0.0 3.2 0.00 0.28 0.28 90 1014.2
20260506202525 11 84 1.6 6.4 0.00 0.28 0.28 89 1014.2
20260506201520 12 0.0 0.0 0.00 0.28 0.28 90 1014.2
20260506200612 12 68 0.0 6.4 0.00 0.28 0.28 90 1014.3
20260506195609 12 338 0.0 3.2 0.00 0.28 0.28 89 1014.2
20260506194608 12 92 1.6 6.4 0.00 0.28 0.28 89 1014.0
20260506193558 12 80 1.6 6.4 0.00 0.28 0.28 89 1014.0
20260506192556 12 119 0.0 6.4 0.00 0.28 0.28 90 1013.9
20260506191547 12 45 0.0 3.2 0.00 0.28 0.28 90 1013.8
20260506190546 12 81 3.2 6.4 0.03 0.28 0.28 90 1013.4
20260506185537 12 47 1.6 6.4 0.03 0.28 0.28 90 1013.2
20260506184534 12 84 1.6 6.4 0.05 0.28 0.28 90 1012.9
20260506183532 12 82 3.2 6.4 0.13 0.28 0.28 89 1012.8
20260506182524 12 83 0.0 3.2 0.18 0.28 0.28 90 1012.7
20260506181521 12 146 0.0 3.2 0.28 0.28 0.28 90 1012.8
20260506180542 13 0.0 0.0 0.23 0.23 0.23 90 1012.8
20260506175534 13 68 0.0 3.2 0.23 0.23 0.23 90 1012.7
20260506174531 13 161 1.6 6.4 0.20 0.20 0.20 90 1012.5
20260506173523 13 351 1.6 3.2 0.15 0.15 0.15 88 1012.7
20260506172520 13 0 0.0 6.4 0.10 0.10 0.10 86 1012.8
20260506171614 14 294 0.0 3.2 0.00 0.00 0.00 85 1012.8
20260506170609 14 53 0.0 6.4 0.00 0.00 0.00 84 1012.8
20260506165606 14 113 0.0 3.2 0.00 0.00 0.00 84 1012.6
20260506164558 15 281 0.0 3.2 0.00 0.00 0.00 83 1012.4
20260506163555 15 356 3.2 6.4 0.00 0.00 0.00 81 1012.4
20260506162544 15 25 1.6 3.2 0.00 0.00 0.00 80 1012.4
20260506161536 16 341 1.6 3.2 0.00 0.00 0.00 78 1012.3
20260506160524 16 218 1.6 3.2 0.00 0.00 0.00 78 1012.1
20260506155520 16 309 1.6 6.4 0.00 0.00 0.00 76 1012.2
20260506154611 16 19 1.6 3.2 0.00 0.00 0.00 76 1012.1
20260506153610 17 106 1.6 9.7 0.00 0.00 0.00 75 1012.0
20260506152600 17 303 1.6 6.4 0.00 0.00 0.00 74 1012.1
20260506151557 17 344 3.2 6.4 0.00 0.00 0.00 74 1012.1
20260506150554 17 13 1.6 6.4 0.00 0.00 0.00 73 1012.0
20260506145546 17 310 1.6 6.4 0.00 0.00 0.00 74 1012.1
20260506144543 17 19 1.6 6.4 0.00 0.00 0.00 74 1012.2
20260506143056 18 209 1.6 6.4 0.00 0.00 0.00 73 1012.3
20260506142046 17 331 3.2 6.4 0.00 0.00 0.00 74 1012.3
20260506141043 17 0 1.6 3.2 0.00 0.00 0.00 71 1012.5